Orbital Elements at Epoch 2459000.5 (2020-May-31.0) TDB
Reference: JPL 18 (heliocentric ecliptic J2000)
Element | Value | Uncertainty (1-sigma) | Units |
e | .196641286836154 | 4.4015e-08 | |
a | 2.718415807711459 | 9.6897e-09 | au |
q | 2.183863025127335 | 1.1916e-07 | au |
i | 13.03907167017057 | 4.5291e-06 | deg |
node | 291.8744778730676 | 1.5997e-05 | deg |
peri | 27.02386653588068 | 1.9014e-05 | deg |
M | 347.5415225551827 | 8.1854e-06 | deg |
tp | 2459057.154541193100 (2020-Jul-26.65454119) | 3.7213e-05 | TDB |
period | 1637.088875414768 4.48 | 8.753e-06 2.396e-08 | d yr |
n | .2199025388336302 | 1.1758e-09 | deg/d |
Q | 3.252968590295584 | 1.1595e-08 | au |
|
| | Orbit Determination Parameters
Additional Information
|